[[{"header":{"parameterUnit":"m.s-1","parameterCategory":1,"la1":30.2991,"la2":30.254,"lo1":-89.0895,"lo2":-89.0444,"dy":0.0017,"dx":0.0017,"nx":28,"ny":28,"refTime":"2023-09-11T09:00:00:Z","depth":0,"parameterNumber":2,"parameterNumberName":"U-component_of_WINDS"},"data":[0,0,0,0,0,0,0,0,0,0,0,0,0,0,0,0,0,0,0,0,0,0,0,0,0,0,0,0,0,0,0,0,0,0,0,0,0,0,0,0,0,0,0,0,0,0,0,0,0,0,0,0,0,0,0,0,0,0,-1.3532,-1.3533,0,-1.3596,-1.3597,-1.3597,-1.3603,-1.3602,-1.3601,-1.3601,-1.3669,-1.3671,-1.3674,0,0,0,0,0,0,0,0,0,0,0,0,0,-1.3417,-1.342,-1.3532,-1.3533,-1.3534,-1.3596,-1.3597,-1.3598,-1.3603,-1.3602,-1.3601,-1.3601,-1.3668,-1.3671,-1.3674,0,0,0,0,0,0,0,0,0,0,0,0,0,-1.3473,-1.342,-1.3532,-1.3544,-1.3545,-1.3596,-1.3597,-1.3598,-1.3603,-1.3602,-1.3601,-1.36,-1.3667,-1.3671,-1.3674,-1.3718,0,0,-1.3686,-1.3687,0,0,0,0,0,0,0,0,-1.347,-1.3477,-1.3541,-1.3543,-1.3545,-1.359,-1.3581,-1.3638,-1.3603,-1.3581,-1.3601,-1.36,-1.3644,-1.3649,-1.3664,-1.3721,-1.3724,-1.3686,-1.3688,-1.369,-1.3691,0,0,0,0,0,0,0,-1.3466,-1.3474,-1.3557,-1.3542,-1.3544,-1.3547,-1.3553,-1.3592,-1.3618,-1.3583,-1.3584,-1.3591,-1.3645,-1.366,-1.3665,-1.3725,-1.3686,-1.3689,-1.3692,-1.3693,-1.3822,-1.3823,0,0,0,0,0,0,-1.3459,-1.3471,-1.3555,-1.3559,-1.3504,-1.355,-1.3557,-1.3577,-1.3617,-1.3622,-1.3592,-1.3591,-1.3654,-1.3661,-1.3668,-1.3721,-1.369,-1.3693,-1.3695,-1.382,-1.3822,-1.3823,0,0,0,0,0,0,-1.3457,-1.3467,-1.3553,-1.3515,-1.3526,-1.3553,-1.3575,-1.3579,-1.3594,-1.3624,-1.3629,-1.3603,-1.3654,-1.3663,-1.3705,-1.3723,-1.3695,-1.3698,-1.3819,-1.3821,-1.3823,-1.3828,0,0,0,0,0,0,-1.3454,-1.3466,-1.3482,-1.3516,-1.3528,-1.3588,-1.3576,-1.3581,-1.36,-1.36,-1.3635,-1.364,-1.3654,-1.37,-1.3709,-1.3728,-1.3701,-1.3817,-1.382,-1.3822,-1.3826,-1.383,-1.3833,0,0,0,0,0,-1.345,-1.3482,-1.3483,-1.3493,-1.3549,-1.3589,-1.3597,-1.3611,-1.3601,-1.3618,-1.3638,-1.3639,-1.372,-1.3704,-1.3714,-1.3735,-1.3816,-1.3819,-1.3822,-1.3825,-1.3829,-1.3833,0,0,0,0,0,0,-1.3451,-1.3486,-1.3488,-1.3532,-1.3557,-1.359,-1.3612,-1.3615,-1.3644,-1.3643,-1.366,-1.3668,-1.371,-1.3727,-1.3708,-1.3779,-1.3767,-1.3772,-1.3766,-1.377,-1.3774,-1.3768,-1.3704,0,0,0,0,0,-1.3456,-1.3485,-1.3515,-1.3551,-1.3563,-1.3585,-1.3603,-1.3612,-1.3639,-1.365,-1.3673,-1.37,-1.3732,-1.3752,-1.3783,-1.3829,-1.3837,-1.3849,-1.3852,-1.3854,-1.3858,-1.3883,-1.3889,-1.3832,-1.3832,-1.3832,0,0,-1.3467,-1.349,-1.3508,-1.3552,-1.3572,-1.3602,-1.3594,-1.3627,-1.3649,-1.3656,-1.3697,-1.3714,-1.3746,-1.379,-1.3811,-1.3806,-1.3876,-1.3858,-1.3859,-1.3862,-1.3887,-1.3892,-1.3897,-1.3834,-1.3834,-1.3833,0,0,-1.3503,-1.3524,-1.3555,-1.3576,-1.3607,-1.3622,-1.3629,-1.3662,-1.3673,-1.3714,-1.372,-1.3748,-1.3802,-1.3824,-1.3842,-1.3887,-1.3889,-1.3897,-1.3913,-1.3938,-1.3942,-1.3946,-1.3961,-1.3967,-1.39,-1.39,-1.3901,0,-1.3513,-1.3558,-1.3572,-1.3603,-1.3623,-1.3629,-1.3662,-1.3682,-1.3722,-1.3735,-1.3729,-1.3796,-1.3818,-1.3868,-1.3878,-1.3894,-1.3903,-1.3892,-1.394,-1.3944,-1.3948,-1.3963,-1.3969,-1.3901,-1.3901,-1.3901,-1.3901,0,-1.3569,-1.36,-1.3622,-1.3659,-1.3681,-1.3713,-1.3733,-1.3753,-1.376,-1.3775,-1.3818,-1.3844,-1.388,-1.3893,-1.39,-1.3944,-1.3939,-1.3936,-1.3925,-1.3954,-1.3968,-1.3974,-1.3902,-1.3902,-1.3902,-1.3901,0,0,-1.3607,-1.3651,-1.3659,-1.3675,-1.371,-1.3735,-1.3768,-1.3802,-1.3819,-1.3847,-1.3875,-1.3921,-1.3918,-1.3939,-1.3949,-1.3971,-1.4004,-1.3966,-1.3967,-1.3971,-1.4053,-1.4054,-1.406,-1.4006,-1.4007,-1.4008,-1.405,0,-1.3646,-1.3703,-1.3716,-1.3766,-1.3794,-1.3801,-1.383,-1.3855,-1.387,-1.3897,-1.3915,-1.3947,-1.3941,-1.3954,-1.3976,-1.3995,-1.402,-1.3992,-1.4033,-1.4034,-1.4023,-1.4068,-1.4069,-1.4107,-1.4056,-1.4056,-1.4057,0,-1.3699,-1.3727,-1.3778,-1.3809,-1.3822,-1.3847,-1.3879,-1.3905,-1.3934,-1.3944,-1.3967,-1.3975,-1.401,-1.3997,-1.4046,-1.4027,-1.4044,-1.4056,-1.4058,-1.4062,-1.4047,-1.4072,-1.412,-1.4125,-1.4066,-1.4065,-1.4065,0,-1.3721,-1.3771,-1.3808,-1.3823,-1.386,-1.3877,-1.3894,-1.3921,-1.3941,-1.397,-1.3983,-1.4016,-1.4034,-1.4059,-1.4076,-1.4065,-1.4124,-1.4112,-1.4133,-1.4132,-1.4144,-1.4143,-1.4195,-1.4157,-1.4157,-1.4157,-1.4156,0,-1.3763,-1.3794,-1.3818,-1.3841,-1.3877,-1.3892,-1.3927,-1.3944,-1.3968,-1.3995,-1.4004,-1.4029,-1.405,-1.4078,-1.4092,-1.413,-1.4139,-1.4148,-1.4151,-1.4147,-1.4145,-1.4158,-1.4155,-1.4158,-1.4158,-1.4157,-1.4157,0,-1.3792,-1.381,-1.3851,-1.3882,-1.3891,-1.3916,-1.3943,-1.3966,-1.3981,-1.4015,-1.4024,-1.4049,-1.4083,-1.4102,-1.4146,-1.4155,-1.4197,-1.4199,-1.4187,-1.4188,-1.4207,-1.4205,-1.4268,-1.4277,-1.4234,-1.4234,-1.4234,0,-1.3818,-1.3842,-1.3875,-1.3893,-1.3909,-1.3938,-1.3958,-1.3975,-1.3995,-1.403,-1.4048,-1.4083,-1.411,-1.4164,-1.4187,-1.422,-1.4223,-1.4243,-1.4228,-1.4223,-1.4222,-1.422,-1.4223,-1.4245,-1.4245,-1.4246,-1.4246,0,-1.386,-1.3867,-1.3895,-1.3926,-1.3949,-1.3974,-1.3999,-1.4014,-1.4035,-1.4057,-1.4091,-1.4113,-1.4156,-1.419,-1.4225,-1.4243,-1.4248,-1.4251,-1.4257,-1.4252,-1.4244,-1.4248,-1.4193,-1.4249,-1.4249,-1.4248,-1.4248,-1.4248,-1.3888,-1.3909,-1.3936,-1.3966,-1.3987,-1.401,-1.4033,-1.4051,-1.4079,-1.4115,-1.4123,-1.4159,-1.4188,-1.4235,-1.4254,-1.4282,-1.4279,-1.4288,-1.4291,-1.4293,-1.4293,-1.424,-1.4289,-1.4289,-1.4289,-1.4289,-1.4289,0,-1.393,-1.3948,-1.3975,-1.401,-1.4034,-1.4035,-1.4063,-1.4084,-1.4114,-1.414,-1.4167,-1.4206,-1.4239,-1.4264,-1.4298,-1.4316,-1.432,-1.4325,-1.4323,-1.4327,-1.4294,-1.4285,-1.4321,-1.4321,-1.4321,-1.4321,-1.4321,-1.4321,-1.3955,-1.3991,-1.4002,-1.4048,-1.4066,-1.41,-1.4115,-1.4137,-1.4157,-1.42,-1.4227,-1.4243,-1.4268,-1.4304,-1.4335,-1.4341,-1.4353,-1.4358,-1.4365,-1.4333,-1.433,-1.4326,-1.4317,-1.436,-1.436,-1.4395,-1.4395,-1.4396]},{"header":{"parameterUnit":"m.s-1","parameterCategory":1,"la1":30.2991,"la2":30.254,"lo1":-89.0895,"lo2":-89.0444,"dy":0.0017,"dx":0.0017,"nx":28,"ny":28,"refTime":"2023-09-11T09:00:00:Z","depth":0,"parameterNumber":3,"parameterNumberName":"V-component_of_WINDS"},"data":[0,0,0,0,0,0,0,0,0,0,0,0,0,0,0,0,0,0,0,0,0,0,0,0,0,0,0,0,0,0,0,0,0,0,0,0,0,0,0,0,0,0,0,0,0,0,0,0,0,0,0,0,0,0,0,0,0,0,2.7982,2.7982,0,2.7986,2.7986,2.7986,2.7939,2.7938,2.7936,2.7935,2.7938,2.7939,2.7941,0,0,0,0,0,0,0,0,0,0,0,0,0,2.7933,2.7935,2.7982,2.7982,2.7982,2.7986,2.7986,2.7986,2.7939,2.7938,2.7936,2.7934,2.7938,2.7939,2.7941,0,0,0,0,0,0,0,0,0,0,0,0,0,2.7948,2.7935,2.7982,2.7959,2.7957,2.7986,2.7986,2.7986,2.7939,2.7937,2.7936,2.7934,2.7937,2.7939,2.7941,2.7991,0,0,2.7947,2.7948,0,0,0,0,0,0,0,0,2.7947,2.7949,2.7963,2.7961,2.7959,2.796,2.797,2.7988,2.794,2.7946,2.7935,2.7933,2.7947,2.7948,2.7953,2.7992,2.7992,2.7947,2.7948,2.7949,2.795,0,0,0,0,0,0,0,2.7946,2.7949,2.7984,2.7963,2.7961,2.7948,2.7948,2.7973,2.7957,2.7945,2.7942,2.7943,2.7945,2.7951,2.7953,2.7992,2.7947,2.7949,2.795,2.7951,2.8071,2.8073,0,0,0,0,0,0,2.7948,2.7949,2.7983,2.7984,2.7948,2.7951,2.7951,2.7962,2.7957,2.7954,2.7945,2.7941,2.7949,2.795,2.7952,2.801,2.7949,2.7951,2.7952,2.8069,2.8071,2.8073,0,0,0,0,0,0,2.7947,2.7952,2.7983,2.7965,2.7968,2.7954,2.7966,2.7963,2.7968,2.7956,2.7953,2.7954,2.7947,2.795,2.7982,2.8009,2.7952,2.7953,2.8066,2.8069,2.8072,2.8126,0,0,0,0,0,0,2.7946,2.7952,2.7971,2.7966,2.7969,2.8013,2.7968,2.7964,2.7972,2.7967,2.7964,2.7961,2.7946,2.7979,2.7984,2.8011,2.7955,2.8064,2.8068,2.8071,2.8122,2.8131,2.8139,0,0,0,0,0,2.7945,2.7986,2.7972,2.7977,2.7993,2.8015,2.8017,2.7998,2.7974,2.7993,2.7985,2.7961,2.8006,2.7983,2.7988,2.8016,2.8062,2.8067,2.8071,2.8118,2.8129,2.8138,0,0,0,0,0,0,2.7995,2.7985,2.7969,2.8011,2.8014,2.8007,2.803,2.8011,2.8021,2.8015,2.7992,2.7992,2.8027,2.8025,2.7999,2.8064,2.803,2.8035,2.8064,2.8074,2.8082,2.8082,2.7956,0,0,0,0,0,2.8011,2.8029,2.802,2.8057,2.806,2.8045,2.8053,2.8039,2.8041,2.8042,2.8037,2.804,2.8054,2.8064,2.8077,2.8122,2.812,2.8144,2.8152,2.8159,2.8164,2.8186,2.8196,2.8088,2.8088,2.8088,0,0,2.8044,2.8041,2.8054,2.8067,2.8068,2.8087,2.8046,2.8068,2.8082,2.8046,2.8075,2.8072,2.8073,2.8112,2.8128,2.8111,2.8193,2.8165,2.817,2.8171,2.8192,2.8202,2.8211,2.8092,2.8091,2.809,0,0,2.8113,2.8113,2.8144,2.8145,2.8147,2.8137,2.8144,2.814,2.8136,2.8166,2.8138,2.8155,2.818,2.8182,2.8187,2.8257,2.8235,2.8262,2.8304,2.8326,2.8335,2.8342,2.8366,2.8375,2.8267,2.8267,2.8267,0,2.8154,2.8182,2.8162,2.8186,2.8192,2.816,2.819,2.8193,2.8199,2.8204,2.8184,2.8215,2.8214,2.8252,2.8269,2.8274,2.8281,2.8261,2.8335,2.8343,2.8349,2.8372,2.8381,2.827,2.827,2.8269,2.8269,0,2.8231,2.8251,2.8275,2.8281,2.8291,2.8318,2.8302,2.8313,2.8298,2.829,2.832,2.8318,2.8329,2.8337,2.8323,2.8373,2.8362,2.834,2.8304,2.8363,2.8383,2.8392,2.8275,2.8274,2.8273,2.8272,0,0,2.8332,2.8326,2.8336,2.8338,2.8337,2.8352,2.8377,2.8388,2.8398,2.8404,2.8423,2.8446,2.8425,2.843,2.8416,2.8435,2.849,2.841,2.841,2.8424,2.8543,2.856,2.857,2.8476,2.8477,2.8478,2.8543,0,2.8398,2.8441,2.8424,2.8468,2.8486,2.8456,2.8478,2.8479,2.8473,2.8486,2.8478,2.8494,2.8466,2.8469,2.8487,2.8479,2.8513,2.8475,2.8493,2.8494,2.8492,2.8581,2.8598,2.8659,2.8551,2.8552,2.8553,0,2.8481,2.849,2.8536,2.8531,2.8538,2.8558,2.8566,2.858,2.8581,2.8575,2.8581,2.8562,2.8586,2.8552,2.8584,2.8558,2.8565,2.8563,2.8564,2.8564,2.8526,2.8582,2.8678,2.8687,2.8566,2.8565,2.8564,0,2.8549,2.8571,2.8601,2.8604,2.86,2.8615,2.8614,2.8613,2.8621,2.8628,2.8633,2.8643,2.8649,2.8657,2.8641,2.8618,2.8675,2.864,2.867,2.867,2.8682,2.8682,2.878,2.8689,2.8689,2.8689,2.8689,0,2.8624,2.8653,2.8631,2.865,2.8681,2.8661,2.8693,2.8689,2.8688,2.8705,2.868,2.8696,2.8675,2.8689,2.8677,2.8705,2.8708,2.8703,2.8699,2.8704,2.8705,2.8708,2.8702,2.8691,2.8691,2.869,2.869,0,2.8704,2.8691,2.8721,2.8715,2.8714,2.8737,2.8732,2.8748,2.874,2.8761,2.8765,2.8752,2.8767,2.8752,2.8767,2.8758,2.8796,2.8786,2.8795,2.8792,2.8822,2.8819,2.8924,2.8937,2.8839,2.884,2.8841,0,2.8752,2.8774,2.877,2.8779,2.8779,2.8795,2.8802,2.8784,2.8792,2.8795,2.8811,2.8825,2.8834,2.8859,2.8851,2.8862,2.8852,2.8888,2.8853,2.8857,2.8851,2.8849,2.8851,2.8894,2.8896,2.8897,2.8897,0,2.8839,2.8831,2.8843,2.8853,2.8862,2.8869,2.8874,2.8883,2.8863,2.8874,2.889,2.8897,2.8911,2.8924,2.8933,2.8931,2.8911,2.8909,2.8916,2.8921,2.8924,2.8922,2.8813,2.8906,2.8905,2.8904,2.8904,2.8904,2.8904,2.8921,2.8921,2.8934,2.8936,2.8941,2.8956,2.8949,2.8961,2.8972,2.896,2.8978,2.8978,2.8987,2.8988,2.9002,2.8987,2.8998,2.9,2.9003,2.9007,2.8923,2.9004,2.9003,2.9003,2.9003,2.9003,0,2.8988,2.8986,2.8999,2.9006,2.9017,2.8998,2.9002,2.9012,2.9028,2.903,2.904,2.9057,2.9069,2.9062,2.9072,2.9085,2.9076,2.9088,2.9086,2.9086,2.902,2.9012,2.9095,2.9095,2.9095,2.9095,2.9095,2.9095,2.9033,2.9061,2.9054,2.9082,2.908,2.9097,2.9101,2.9105,2.9107,2.9127,2.9137,2.9132,2.913,2.914,2.9151,2.9148,2.9153,2.9168,2.9162,2.91,2.9091,2.9082,2.9075,2.917,2.917,2.9227,2.9227,2.9228]}]]